Location: Esbach
(50.2922°N, 11.0011°E)
Time: 03:36:15
(UTC+00:00)

Daily predictions for brighter satellites

Satellite Brightness Start Highest point End
(mag) Time Altitude Azimuth Time Altitude Azimuth Time Altitude Azimuth
Cosmos 2237 Rocket 4.4 01:52:28 20° NE 01:52:28 20° NE 01:54:24 10° NE
Cosmos 2219 Rocket 4.4 02:01:02 21° NNE 02:01:02 21° NNE 02:02:48 10° NNE
Cosmos 2360 Rocket 4.5 02:13:23 17° N 02:13:23 17° N 02:14:52 10° NNE
Cosmos 1943 Rocket 4.1 02:13:49 25° NE 02:13:49 25° NE 02:18:05 10° E
SL-16 R/B 3.7 02:33:07 32° E 02:33:07 32° E 02:37:33 10° NE
Cosmos 2369 Rocket 3.8 02:38:57 22° N 02:41:39 31° NE 02:46:43 10° ESE
ATLAS 2AS CENTAUR R/B 4.3 02:43:18 27° NNW 02:45:32 30° N 02:52:07 10° ENE
CZ-4C R/B 3.1 02:49:27 46° NNE 02:49:27 46° NNE 02:53:54 10° NE
ADEOS II 4.3 02:46:20 10° N 02:47:33 17° N 02:47:33 17° N
Cosmos 1934 Rocket 4.3 02:46:55 10° N 03:01:36 - SSE 02:53:10 66° ENE
Lacrosse 5 3.4 02:56:48 32° ESE 02:56:48 32° ESE 02:59:30 10° ESE
IDEFIX/ARIANE 42P 3.8 02:50:08 10° NNE 02:53:19 37° NNE 02:53:19 37° NNE
Cosmos 2333 Rocket 3.7 03:07:47 26° N 03:07:47 26° N 03:10:53 10° NNE
CZ-2C R/B 3.6 03:04:29 10° NNE 03:09:25 41° E 03:10:46 34° SE
Cosmos 1605 Rocket 4.3 03:11:01 10° N 03:17:16 66° ENE 03:23:22 10° SSE
BREEZE-M DEB (TANK) 3.3 03:21:49 65° ESE 03:21:49 65° ESE 03:30:17 10° ESE
ADEOS 3.6 03:22:08 10° NNE 03:27:24 75° ESE 03:27:38 73° SE
Nadezhda 3 Rocket 4.3 03:33:54 50° NW 03:33:54 50° NW 03:39:10 10° N
Cosmos 2237 Rocket 2.9 03:34:18 40° NNW 03:34:18 40° NNW 03:38:40 10° NNE
USA 215 3.4 03:30:41 10° ENE 03:37:08 63° NNW 03:38:28 52° WNW
Spot 2 4.4 03:34:45 10° NNE 03:38:30 58° E 03:38:30 58° E
Meteor 2-10 Rocket 3.4 03:40:28 82° SW 03:40:43 87° WNW 03:45:55 10° NNE
Cosmos 2219 Rocket 3.8 03:42:44 21° NNW 03:42:44 21° NNW 03:46:16 10° NNE
CZ-4B R/B 4.2 03:41:14 10° NNE 03:44:39 34° E 03:46:10 24° SE
Aureole 2 Rocket 4.3 03:47:43 24° ESE 03:47:43 24° ESE 03:49:26 10° SE
ATLAS CENTAUR R/B 1.8 03:49:20 61° N 03:49:20 61° N 03:53:11 10° NE
Meteor 1-31 Rocket 3.5 03:45:52 10° NNE 03:49:36 50° E 03:50:22 43° SE
Cosmos 1339 Rocket 4.3 03:49:40 19° S 03:54:13 89° W 04:00:23 10° N
Cosmos 2360 Rocket 4.4 03:55:08 11° NNW 03:55:46 12° NNW 03:57:39 10° N
MSX 3.8 03:51:03 10° N 03:56:40 57° WNW 03:57:22 53° W
Cosmos 1500 Rocket 3.9 03:52:29 10° N 03:56:56 66° ENE 04:01:19 10° SSE
Cosmos 1943 Rocket 2.0 03:55:24 34° NW 03:57:54 76° WSW 04:03:22 10° SSE
H-2A R/B 2.9 03:58:12 10° NNE 04:02:34 68° ESE 04:06:15 15° S
NOSS 3-1 (A) 4.4 04:01:46 39° W 04:02:50 41° WSW 04:10:39 10° S
Cosmos 1356 Rocket 3.5 04:03:55 58° NNW 04:03:55 58° NNW 04:07:24 10° N
COSMOS 2428 4.4 04:04:38 18° NW 04:04:43 18° NNW 04:08:39 10° N
STARLINK-1153 4.3 04:07:20 33° NE 04:07:20 33° NE 04:09:19 10° ENE
STARLINK-1180 4.3 04:07:31 34° NE 04:07:31 34° NE 04:09:32 10° ENE
STARLINK-1174 4.3 04:07:58 34° NE 04:07:58 34° NE 04:09:59 10° ENE
STARLINK-1139 4.2 04:08:11 34° NE 04:08:11 34° NE 04:10:12 10° ENE
STARLINK-1133 4.2 04:08:24 34° NE 04:08:24 34° NE 04:10:26 10° ENE
Okean O Rocket 4.4 04:04:39 10° NE 04:07:48 19° E 04:10:54 10° SE
Cosmos 2100 Rocket 4.4 04:01:35 10° N 04:07:48 65° ENE 04:13:55 10° SSE
STARLINK-1151 4.2 04:08:38 35° NE 04:08:38 35° NE 04:10:40 10° ENE
STARLINK-1160 4.2 04:09:16 35° NE 04:09:16 35° NE 04:11:20 10° ENE
STARLINK-1161 4.2 04:09:29 35° NE 04:09:29 35° NE 04:11:33 10° ENE
STARLINK-1145 4.2 04:09:42 35° NE 04:09:42 35° NE 04:11:47 10° ENE
STARLINK-1172 4.1 04:09:55 36° NE 04:09:55 36° NE 04:12:00 10° ENE
Cosmos 1743 Rocket 3.4 04:04:48 10° N 04:09:09 88° W 04:13:29 10° S
STARLINK-1182 4.1 04:10:21 36° NE 04:10:21 36° NE 04:12:28 10° ENE
STARLINK-1164 4.1 04:10:33 36° NE 04:10:33 36° NE 04:12:40 10° ENE
STARLINK-1168 4.1 04:10:47 36° NE 04:10:47 36° NE 04:12:54 10° ENE
STARLINK-1183 4.1 04:11:25 37° NE 04:11:25 37° NE 04:13:35 10° ENE
STARLINK-1181 4.0 04:11:38 37° NE 04:11:38 37° NE 04:13:47 10° ENE
STARLINK-1196 4.0 04:12:17 38° NE 04:12:17 38° NE 04:14:30 10° ENE
STARLINK-1149 4.2 04:12:46 32° NE 04:12:46 32° NE 04:14:35 10° ENE
STARLINK-1186 4.0 04:12:44 38° NE 04:12:44 38° NE 04:14:57 10° ENE
STARLINK-1185 4.0 04:12:57 38° NE 04:12:57 38° NE 04:15:10 10° ENE
STARLINK-1175 4.0 04:13:09 38° NE 04:13:09 38° NE 04:15:23 10° ENE
STARLINK-1147 3.9 04:13:22 38° NE 04:13:22 38° NE 04:15:37 10° ENE
STARLINK-1146 3.9 04:13:35 39° NE 04:13:35 39° NE 04:15:51 10° ENE
Cosmos 1869 4.4 04:09:16 10° SSE 04:13:04 45° E 04:16:52 10° NNE
STARLINK-1152 3.9 04:13:49 39° NE 04:13:49 39° NE 04:16:05 10° ENE
STARLINK-1195 3.9 04:14:01 39° NE 04:14:01 39° NE 04:16:18 10° ENE
STARLINK-1137 3.9 04:14:15 39° NE 04:14:15 39° NE 04:16:31 10° ENE
STARLINK-1142 3.9 04:14:28 39° NE 04:14:28 39° NE 04:16:45 10° ENE
STARLINK-1127 3.9 04:14:40 39° NE 04:14:40 39° NE 04:16:58 10° ENE
STARLINK-1184 3.9 04:14:53 40° NE 04:14:53 40° NE 04:17:12 10° ENE
STARLINK-1193 3.8 04:15:07 40° NE 04:15:07 40° NE 04:17:26 10° ENE
STARLINK-1194 3.8 04:15:18 40° NE 04:15:18 40° NE 04:17:38 10° ENE
SL-16 R/B 2.4 04:15:01 41° W 04:16:28 51° NW 04:22:01 10° NNE
STARLINK-1132 3.7 04:20:14 39° NE 04:20:14 39° NE 04:22:27 10° ENE
FENGYUN 3A 4.4 04:14:50 10° NNE 04:20:11 53° E 04:25:30 10° S
Cosmos 1459 Rocket 4.2 04:15:16 10° N 04:21:27 75° E 04:27:41 10° SSE
STARLINK-1150 3.6 04:22:37 41° NNE 04:22:37 41° NNE 04:24:57 10° ENE
STARLINK-1162 3.4 04:22:57 49° N 04:23:02 49° N 04:26:11 10° ENE
STARLINK-1163 3.5 04:23:49 42° NNE 04:23:49 42° NNE 04:26:11 10° ENE
CZ-4B R/B 3.9 04:19:37 10° N 04:23:55 72° WNW 04:27:10 18° SSW
STARLINK-1157 3.4 04:24:50 49° N 04:25:00 49° N 04:28:09 10° ENE
Cosmos 1842 Rocket 3.5 04:21:58 19° SSW 04:25:05 69° WNW 04:29:35 10° N
STARLINK-1173 3.4 04:25:37 43° NNE 04:25:37 43° NNE 04:28:04 10° E
STARLINK-1177 3.4 04:25:47 43° NNE 04:25:47 43° NNE 04:28:14 10° E
Cosmos 2369 Rocket 2.2 04:20:47 12° NW 04:26:05 61° WSW 04:31:41 10° SSE
STARLINK-1167 3.4 04:26:35 44° NNE 04:26:35 44° NNE 04:29:04 10° E
Cosmos 1238 Rocket 4.3 04:20:30 10° N 04:26:43 60° ENE 04:32:02 10° SSE
STARLINK-1159 3.4 04:26:50 48° NNW 04:27:06 49° N 04:30:14 10° E
STARLINK-1171 3.4 04:28:59 47° NNW 04:29:20 50° N 04:32:28 10° E
SJ-12 4.4 04:26:36 10° NNE 04:30:44 64° ESE 04:34:49 10° S
STARLINK-1124 4.3 04:29:56 25° S 04:30:44 29° SE 04:33:21 10° E
NOSS 2-1 (C) 3.7 04:30:40 38° NW 04:30:55 39° NW 04:34:41 10° NE
Meteor PRIRODA 3.6 04:27:16 10° NNE 04:31:00 88° ESE 04:34:40 10° SSW
STARLINK-1136 3.2 04:31:18 46° N 04:31:18 46° N 04:33:59 10° E
STARLINK-1155 3.4 04:30:56 46° NNW 04:31:22 50° N 04:34:31 10° E
Cosmos 1603 3.9 04:27:03 10° SSW 04:32:45 76° ESE 04:38:27 10° NNE
STARLINK-1166 3.4 04:33:09 44° NNW 04:33:40 50° N 04:36:49 10° E
Cosmos 921 Rocket 2.9 04:29:22 10° NNW 04:33:51 80° WSW 04:38:11 10° SSE
IDEFIX/ARIANE 42P 3.9 04:30:37 10° N 04:34:08 21° NW 04:34:08 21° NW
NOSS 2-1 (D) 3.8 04:34:39 35° NW 04:35:01 36° NW 04:38:45 10° NE
STARLINK-1107 4.5 04:34:12 21° S 04:35:20 27° SE 04:37:53 10° E
STARLINK-1109 4.5 04:34:25 21° S 04:35:35 27° SE 04:38:08 10° E
STARLINK-1091 4.5 04:34:39 21° S 04:35:49 27° SE 04:38:23 10° E
STARLINK-1165 3.4 04:35:12 42° NW 04:35:49 50° N 04:38:58 10° E
STARLINK-1072 4.5 04:34:51 21° S 04:36:01 28° SE 04:38:35 10° E
STARLINK-1096 4.5 04:35:04 21° S 04:36:14 28° SE 04:38:48 10° E
STARLINK-1079 4.5 04:35:17 21° S 04:36:28 28° SE 04:39:03 10° E
STARLINK-1116 4.5 04:35:31 21° S 04:36:43 28° SE 04:39:17 10° E
CZ-4C R/B 3.4 04:34:38 23° WNW 04:37:09 31° NNW 04:43:01 10° NE
STARLINK-1094 4.4 04:35:57 20° S 04:37:09 28° SE 04:39:44 10° E
Lacrosse 5 2.5 04:36:01 31° WSW 04:37:11 35° SW 04:41:45 10° SSE
STARLINK-1117 4.4 04:36:09 20° S 04:37:22 28° SE 04:39:57 10° E
USA 116 3.5 04:34:17 10° SSE 04:37:24 64° ENE 04:40:30 10° N
Cosmos 1633 2.5 04:33:45 10° N 04:37:26 86° E 04:41:04 10° S
STARLINK-1078 4.4 04:36:22 20° S 04:37:36 28° SE 04:40:11 10° E
Cosmos 2251 Rocket 4.1 04:36:06 30° W 04:37:39 37° NW 04:42:35 10° NNE
Cosmos 1943 3.6 04:32:14 10° SSW 04:37:47 66° ESE 04:43:23 10° NNE
STARLINK-1108 4.4 04:36:36 20° S 04:37:49 28° SE 04:40:25 10° E
STARLINK-1169 3.4 04:37:15 41° NW 04:37:58 50° N 04:41:07 10° E
STARLINK-1071 4.4 04:36:48 20° S 04:38:01 28° SE 04:40:37 10° E
STARLINK-1110 4.4 04:37:02 20° S 04:38:17 29° SE 04:40:52 10° E
ATLAS 2AS CENTAUR R/B 3.8 04:31:04 10° NW 04:38:31 44° NNE 04:45:26 10° E
STARLINK-1122 4.4 04:37:27 20° S 04:38:43 29° SE 04:41:19 10° E
STARLINK-1126 4.4 04:37:40 20° S 04:38:56 29° SE 04:41:32 10° E
STARLINK-1082 4.4 04:37:54 20° S 04:39:10 29° SE 04:41:47 10° E
STARLINK-1100 4.4 04:38:06 20° S 04:39:23 29° SE 04:42:00 10° E
STARLINK-1083 4.4 04:38:19 20° S 04:39:37 29° SE 04:42:13 10° E
STARLINK-1125 4.4 04:38:32 20° S 04:39:50 29° SE 04:42:27 10° E
STARLINK-1178 3.4 04:39:15 39° NW 04:40:03 51° N 04:43:13 10° E
Cosmos 2263 4.2 04:34:47 10° NW 04:40:26 63° WSW 04:46:00 10° SSE
Cosmos 1656 Rocket 3.7 04:35:02 10° NNW 04:40:45 89° ENE 04:46:28 10° SSE
STARLINK-1120 3.4 04:41:13 37° NW 04:42:06 51° N 04:45:16 10° E
COSMO-SKYMED 1 2.5 04:38:05 10° S 04:42:22 60° WSW 04:46:42 10° NNW
Cosmos 1802 Rocket 4.1 04:36:38 10° N 04:43:07 87° ENE 04:49:33 10° S
Cosmos 1633 Rocket 4.4 04:39:45 10° N 04:43:57 42° ENE 04:48:06 10° SE
STARLINK-1131 3.4 04:43:22 36° NW 04:44:20 51° N 04:47:30 10° E
STARLINK-1170 3.0 04:44:42 41° NNW 04:45:07 46° N 04:47:42 10° E
CZ-4B R/B 4.4 04:41:16 10° NNE 04:46:22 44° E 04:51:24 10° S
Cosmos 1666 Rocket 4.4 04:42:09 10° N 04:46:32 53° ENE 04:50:51 10° SSE
STARLINK-1190 3.4 04:45:30 34° NW 04:46:35 52° N 04:49:45 10° E
Cosmos 1862 3.7 04:43:09 10° N 04:47:07 65° ENE 04:51:03 10° SSE
Cosmos 2221 2.6 04:43:13 10° SSW 04:47:23 52° WNW 04:51:37 10° N
CZ-2C R/B 3.2 04:42:53 10° N 04:47:32 34° WNW 04:50:10 21° WSW
Meteor 2-3 Rocket 4.2 04:43:27 10° NNW 04:48:41 37° W 04:53:56 10° SSW
ADEOS Rocket 3.5 04:45:04 10° SSE 04:51:22 73° ENE 04:58:26 10° NNW
Cosmos 2333 Rocket 4.3 04:49:52 10° NW 04:51:59 12° NNW 04:54:06 10° N
ALOS 2.2 04:50:59 10° N 04:55:41 76° WNW 05:00:20 10° SSW
Cosmos 1484 Rocket 3.0 04:51:59 10° N 04:55:46 46° WNW 04:59:36 10° SW
TELKOM 3 2.5 04:58:59 52° W 04:59:23 80° S 05:01:30 10° E
COSMOS 2455 4.3 04:59:51 10° NNW 05:05:15 32° NE 05:10:38 10° E
STARLINK-1179 2.8 05:04:27 26° NW 05:05:41 55° NNE 05:08:18 10° E
STARLINK-1176 2.8 05:05:01 25° WNW 05:06:20 55° NNE 05:08:58 10° E
STARLINK-1129 3.3 05:05:59 21° WNW 05:07:58 58° N 05:11:13 10° E
GEOS 3 Rocket 3.7 05:03:26 10° NE 05:08:40 65° NW 05:13:57 10° WSW
Cosmos 2016 Rocket 3.9 05:02:44 10° NNW 05:08:58 74° W 05:15:14 10° S
STARLINK-1134 3.3 05:07:53 20° WNW 05:09:57 58° NNE 05:13:11 10° E
Cosmos 1340 3.7 05:07:26 10° N 05:11:07 49° ENE 05:14:47 10° SSE
Cosmos 1346 Rocket 4.2 05:07:30 10° N 05:11:14 40° ENE 05:14:55 10° SE
STARLINK-1135 3.3 05:10:10 19° WNW 05:12:20 59° NNE 05:15:34 10° E
PSLV R/B 4.0 05:09:55 10° N 05:13:29 44° WNW 05:17:05 10° SW
STARLINK-1141 3.3 05:12:25 18° WNW 05:14:40 60° NNE 05:17:55 10° E
PAYLOAD B 4.2 05:10:21 10° NNE 05:15:58 85° WNW 05:21:32 10° SSW
STARLINK-1140 3.3 05:14:30 17° WNW 05:16:51 61° NNE 05:20:06 10° E
Cosmos 1954 Rocket 4.1 05:13:16 10° SSW 05:18:36 85° ESE 05:23:58 10° NNE
Cosmos 2237 Rocket 4.0 05:16:08 11° WNW 05:18:52 14° NNW 05:21:50 10° N
STARLINK-1156 3.2 05:16:43 16° WNW 05:19:10 62° NNE 05:22:25 10° E
STARLINK-1128 4.5 05:15:20 10° SW 05:19:12 47° SSE 05:23:04 10° ENE
CZ-4B R/B 3.9 05:16:42 10° NNW 05:19:36 22° WNW 05:22:18 11° WSW
USA 215 3.8 05:13:24 10° ENE 05:19:41 50° N 05:25:49 11° WNW
Cosmos 407 Rocket 3.7 05:14:49 10° SW 05:20:01 52° WNW 05:25:12 10° NNE
Aureole 2 Rocket 3.8 05:20:04 16° W 05:20:14 16° WSW 05:22:13 10° SW
Cosmos 1140 Rocket 3.5 05:15:59 10° SSW 05:21:12 67° WNW 05:26:28 10° NNE
STARLINK-1148 3.2 05:18:49 16° WNW 05:21:22 63° NNE 05:24:37 10° E
STARLINK-1101 4.5 05:17:49 10° SW 05:21:43 48° SSE 05:25:39 10° ENE
STARLINK-1158 3.2 05:21:02 15° WNW 05:23:40 64° NNE 05:26:55 10° E
STARLINK-1113 4.4 05:19:47 10° SW 05:23:40 50° SSE 05:27:35 10° ENE
Meteor 1-31 Rocket 4.3 05:21:07 10° NNW 05:23:41 18° WNW 05:25:46 12° W
METEOR-M 4.3 05:20:14 10° N 05:25:24 51° WNW 05:30:32 10° SW
Cosmos 1470 Rocket 4.1 05:21:55 10° N 05:26:22 63° ENE 05:30:48 10° SSE
STARLINK-1102 4.3 05:22:31 10° SW 05:26:27 51° SSE 05:30:24 10° ENE
Cosmos 2233 Rocket 4.2 05:20:23 10° N 05:26:41 83° E 05:33:00 10° S
Cosmos 1805 Rocket 4.2 05:23:14 10° NNW 05:27:09 33° W 05:31:03 10° SSW
STARLINK-1119 4.3 05:24:19 10° SW 05:28:13 53° SSE 05:32:10 10° ENE
ATLAS CENTAUR R/B 3.1 05:25:33 12° WNW 05:28:26 20° NNW 05:31:39 10° NNE
Sich 1 3.4 05:25:27 10° NNW 05:29:30 42° W 05:33:33 10° SSW
STARLINK-1111 4.3 05:27:10 10° SW 05:31:09 54° SSE 05:35:08 10° ENE
STARLINK-1114 4.2 05:28:53 10° SW 05:32:49 56° SSE 05:36:46 10° ENE
SMAP 3.7 05:30:59 10° NNE 05:35:38 61° ESE 05:40:15 10° S
STARLINK-1073 4.2 05:31:54 10° SW 05:35:53 58° SSE 05:39:54 10° ENE
STARLINK-1130 (DARKSAT) 4.1 05:33:24 10° SW 05:37:21 59° SSE 05:41:19 10° ENE
H-2A R/B 4.1 05:34:39 10° NNW 05:37:37 18° WNW 05:40:38 10° WSW
Cosmos 1315 Rocket 3.9 05:33:50 10° S 05:37:39 50° E 05:41:29 10° NNE
Cosmos 1943 Rocket 3.8 05:38:13 10° WNW 05:40:41 13° W 05:43:09 10° WSW
STARLINK-1121 4.1 05:36:43 10° SW 05:40:44 61° SSE 05:44:45 10° ENE
STARLINK-1153 2.7 05:38:53 10° WNW 05:41:50 78° NNE 05:44:46 10° ESE
STARLINK-1084 4.0 05:37:56 10° SW 05:41:55 63° SSE 05:45:54 10° ENE
STARLINK-1180 2.7 05:39:05 10° WNW 05:42:01 78° NNE 05:44:58 10° ESE
STARLINK-1118 2.3 05:39:42 10° WSW 05:42:13 88° SSE 05:44:46 10° ENE
STARLINK-1174 2.7 05:39:33 10° WNW 05:42:29 78° NNE 05:45:26 10° ESE
STARLINK-1139 2.7 05:39:47 10° WNW 05:42:43 78° NNE 05:45:39 10° ESE
Cosmos 2084 3.6 05:38:24 10° SW 05:42:55 84° NW 05:47:25 10° NE
STARLINK-1133 2.7 05:40:01 10° WNW 05:42:56 79° NNE 05:45:53 10° ESE
STARLINK-1151 2.7 05:40:15 10° WNW 05:43:11 79° NNE 05:46:08 10° ESE
STARLINK-1160 2.7 05:40:54 10° WNW 05:43:51 79° NNE 05:46:47 10° ESE
STARLINK-1161 2.7 05:41:07 10° WNW 05:44:03 80° NNE 05:46:59 10° ESE
Cosmos 1190 Rocket 4.5 05:39:12 10° SW 05:44:09 41° WNW 05:49:12 10° NNE
STARLINK-1145 2.7 05:41:22 10° WNW 05:44:18 80° NNE 05:47:14 10° ESE
Okean O Rocket 1.7 05:40:12 10° N 05:44:30 55° WNW 05:48:45 10° SSW
STARLINK-1172 2.7 05:41:34 10° WNW 05:44:31 80° NNE 05:47:26 10° ESE
STARLINK-1182 2.7 05:42:02 10° WNW 05:44:58 80° NNE 05:47:54 10° ESE
STARLINK-1164 2.7 05:42:14 10° WNW 05:45:11 81° NNE 05:48:06 10° ESE
STARLINK-1168 2.7 05:42:28 10° WNW 05:45:24 81° NNE 05:48:20 10° ESE
STARLINK-1106 4.0 05:41:28 10° SW 05:45:30 65° SSE 05:49:32 10° ENE
STARLINK-1183 2.7 05:43:08 10° WNW 05:46:05 81° NNE 05:49:01 10° ESE
STARLINK-1181 2.7 05:43:22 10° WNW 05:46:17 82° NNE 05:49:13 10° ESE
Cosmos 1697 Rocket 4.5 05:41:44 10° NNW 05:46:36 28° NE 05:51:25 10° ESE
STARLINK-1149 2.5 05:43:52 10° WNW 05:46:37 87° NNE 05:49:21 10° ESE
STARLINK-1196 2.7 05:44:03 10° WNW 05:46:59 82° NNE 05:49:56 10° ESE
STARLINK-1186 2.7 05:44:30 10° WNW 05:47:27 83° NNE 05:50:23 10° ESE
STARLINK-1185 2.7 05:44:43 10° WNW 05:47:40 83° NNE 05:50:36 10° ESE
STARLINK-1175 2.7 05:44:56 10° WNW 05:47:52 83° NNE 05:50:48 10° ESE
STARLINK-1147 2.7 05:45:10 10° WNW 05:48:06 83° NNE 05:51:02 10° ESE
STARLINK-1146 2.7 05:45:24 10° WNW 05:48:21 84° NNE 05:51:17 10° ESE
Cosmos 1400 Rocket 3.0 05:44:29 10° SSW 05:48:24 49° WNW 05:52:24 10° N
Envisat 3.9 05:43:30 10° NNE 05:48:31 55° E 05:53:29 10° S
STARLINK-1152 2.7 05:45:37 10° WNW 05:48:34 84° NNE 05:51:31 10° ESE
STARLINK-1195 2.7 05:45:51 10° WNW 05:48:47 84° NNE 05:51:44 10° ESE
STARLINK-1137 2.7 05:46:04 10° WNW 05:49:01 84° NNE 05:51:57 10° ESE
STARLINK-1142 2.7 05:46:18 10° WNW 05:49:15 84° NNE 05:52:11 10° ESE
STARLINK-1127 2.7 05:46:32 10° WNW 05:49:28 85° NNE 05:52:24 10° ESE
STARLINK-1184 2.7 05:46:45 10° WNW 05:49:42 85° NNE 05:52:37 10° ESE
STARLINK-1193 2.7 05:46:59 10° WNW 05:49:56 85° NNE 05:52:52 10° ESE
Cosmos 1606 3.1 05:46:14 10° S 05:50:02 70° E 05:53:49 10° NNE
STARLINK-1112 3.9 05:46:25 10° SW 05:50:28 69° SSE 05:54:31 10° ENE
Cosmos 1980 Rocket 4.3 05:47:59 10° N 05:52:12 21° NE 05:56:22 10° E
